• In Portugal
  • List of Countries
  • For 7 days
  • Water Temperature
  • Satellite Maps
  • Weather Map
  • Weather Widgets
  • user-avatar
    Login

    Hourly Weather Mieruniszki

    Today, 19 June, Tuesday

    Time Temperature Precipitation Wind Pressure Humidity
    00:00 +14°C° 0 mm 1 mps 746 mmHg 81%
    01:00 +13°C° 0 mm 1 mps 746 mmHg 80%
    02:00 +13°C° 0 mm 1 mps 746 mmHg 79%
    03:00 +13°C° 0 mm 1 mps 746 mmHg 79%
    04:00 +13°C° 0 mm 1 mps 746 mmHg 78%
    05:00 +14°C° 0 mm 1 mps 746 mmHg 78%
    06:00 +15°C° 0 mm 2 mps 746 mmHg 75%
    07:00 +17°C° 0 mm 2 mps 746 mmHg 72%
    08:00 +19°C° 0 mm 3 mps 746 mmHg 69%
    09:00 +20°C° 0 mm 4 mps 746 mmHg 65%
    10:00 +22°C° 0 mm 4 mps 746 mmHg 62%
    11:00 +23°C° 0 mm 5 mps 746 mmHg 58%
    12:00 +23°C° 0.1 mm 5 mps 746 mmHg 61%
    13:00 +23°C° 0.1 mm 5 mps 745 mmHg 63%
    14:00 +23°C° 0.1 mm 5 mps 745 mmHg 66%
    15:00 +22°C° 0.1 mm 5 mps 745 mmHg 70%
    16:00 +21°C° 0.1 mm 5 mps 745 mmHg 75%
    17:00 +20°C° 0.1 mm 5 mps 745 mmHg 79%
    18:00 +19°C° 0 mm 4 mps 746 mmHg 80%
    19:00 +18°C° 0 mm 4 mps 746 mmHg 81%
    20:00 +18°C° 0 mm 3 mps 746 mmHg 82%
    21:00 +16°C° 0 mm 3 mps 746 mmHg 86%
    22:00 +14°C° 0 mm 3 mps 746 mmHg 90%
    23:00 +14°C° 0 mm 2 mps 747 mmHg 94%

    Tomorrow, 20 June, Wednesday

    Time Temperature Precipitation Wind Pressure Humidity
    00:00 +14°C° 0 mm 2 mps 747 mmHg 94%
    01:00 +12°C° 0 mm 3 mps 747 mmHg 95%
    02:00 +12°C° 0 mm 3 mps 747 mmHg 96%
    03:00 +12°C° 0 mm 3 mps 747 mmHg 96%
    04:00 +12°C° 0 mm 3 mps 748 mmHg 96%
    05:00 +12°C° 0 mm 3 mps 748 mmHg 96%
    06:00 +14°C° 0 mm 3 mps 748 mmHg 88%
    07:00 +15°C° 0 mm 4 mps 748 mmHg 81%
    08:00 +17°C° 0 mm 4 mps 748 mmHg 73%
    09:00 +18°C° 0 mm 4 mps 748 mmHg 68%
    10:00 +19°C° 0 mm 4 mps 748 mmHg 63%
    11:00 +20°C° 0 mm 4 mps 749 mmHg 59%
    12:00 +21°C° 0 mm 4 mps 748 mmHg 57%
    13:00 +21°C° 0 mm 4 mps 748 mmHg 55%
    14:00 +22°C° 0 mm 4 mps 748 mmHg 53%
    15:00 +22°C° 0 mm 4 mps 748 mmHg 55%
    16:00 +22°C° 0 mm 4 mps 748 mmHg 56%
    17:00 +22°C° 0 mm 4 mps 747 mmHg 57%
    18:00 +21°C° 0 mm 3 mps 747 mmHg 63%
    19:00 +20°C° 0 mm 2 mps 747 mmHg 69%
    20:00 +20°C° 0 mm 1 mps 747 mmHg 75%
    21:00 +18°C° 0 mm 1 mps 747 mmHg 78%
    22:00 +16°C° 0 mm 1 mps 747 mmHg 80%
    23:00 +15°C° 0 mm 2 mps 747 mmHg 83%

    Day after tomorrow, 21 June, Thursday

    Time Temperature Precipitation Wind Pressure Humidity
    00:00 +14°C° 0 mm 2 mps 747 mmHg 83%
    01:00 +14°C° 0 mm 2 mps 747 mmHg 84%
    02:00 +14°C° 0 mm 2 mps 746 mmHg 85%
    03:00 +14°C° 0 mm 2 mps 746 mmHg 83%
    04:00 +14°C° 0 mm 2 mps 746 mmHg 82%
    05:00 +13°C° 0 mm 3 mps 746 mmHg 81%
    06:00 +16°C° 0 mm 3 mps 746 mmHg 76%
    07:00 +18°C° 0 mm 3 mps 745 mmHg 71%
    08:00 +20°C° 0 mm 3 mps 745 mmHg 66%
    09:00 +22°C° 0 mm 3 mps 745 mmHg 63%
    10:00 +23°C° 0 mm 4 mps 744 mmHg 60%
    11:00 +26°C° 0 mm 4 mps 744 mmHg 58%
    12:00 +26°C° 0 mm 4 mps 743 mmHg 57%
    13:00 +27°C° 0 mm 5 mps 743 mmHg 55%
    14:00 +27°C° 0 mm 5 mps 742 mmHg 54%
    15:00 +28°C° 0 mm 5 mps 741 mmHg 55%
    16:00 +28°C° 0 mm 5 mps 740 mmHg 56%
    17:00 +28°C° 0 mm 5 mps 739 mmHg 57%
    18:00 +26°C° 0.3 mm 5 mps 738 mmHg 64%
    19:00 +25°C° 0.3 mm 5 mps 737 mmHg 70%
    20:00 +22°C° 0.3 mm 5 mps 736 mmHg 77%
    21:00 +22°C° 1.5 mm 6 mps 736 mmHg 81%
    22:00 +21°C° 1.5 mm 6 mps 735 mmHg 85%
    23:00 +20°C° 1.5 mm 7 mps 735 mmHg 88%

    22 June, Friday

    Time Temperature Precipitation Wind Pressure Humidity
    00:00 +18°C° 1.3 mm 7 mps 735 mmHg 90%
    01:00 +16°C° 1.3 mm 6 mps 735 mmHg 92%
    02:00 +15°C° 1.3 mm 6 mps 735 mmHg 94%
    03:00 +13°C° 0.2 mm 6 mps 736 mmHg 93%
    04:00 +11°C° 0.2 mm 6 mps 736 mmHg 93%
    05:00 +9°C° 0.2 mm 5 mps 736 mmHg 92%
    06:00 +10°C° 0 mm 6 mps 737 mmHg 88%
    07:00 +10°C° 0 mm 6 mps 737 mmHg 83%
    08:00 +11°C° 0 mm 7 mps 737 mmHg 78%
    09:00 +12°C° 0.1 mm 7 mps 738 mmHg 74%
    10:00 +14°C° 0.1 mm 7 mps 738 mmHg 71%
    11:00 +14°C° 0.1 mm 7 mps 738 mmHg 68%
    12:00 +15°C° 0.4 mm 7 mps 738 mmHg 68%
    13:00 +15°C° 0.4 mm 7 mps 738 mmHg 68%
    14:00 +15°C° 0.4 mm 7 mps 739 mmHg 68%
    15:00 +15°C° 0.2 mm 6 mps 739 mmHg 66%
    16:00 +15°C° 0.2 mm 6 mps 739 mmHg 63%
    17:00 +15°C° 0.2 mm 5 mps 739 mmHg 60%
    18:00 +14°C° 0.1 mm 4 mps 740 mmHg 66%
    19:00 +13°C° 0.1 mm 4 mps 740 mmHg 72%
    20:00 +12°C° 0.1 mm 3 mps 740 mmHg 78%
    21:00 +11°C° 0 mm 3 mps 740 mmHg 81%
    22:00 +10°C° 0 mm 3 mps 740 mmHg 85%
    23:00 +9°C° 0 mm 3 mps 740 mmHg 89%

    23 June, Saturday

    Time Temperature Precipitation Wind Pressure Humidity
    00:00 +8°C° 0 mm 3 mps 740 mmHg 91%
    01:00 +8°C° 0 mm 3 mps 740 mmHg 93%
    02:00 +8°C° 0 mm 3 mps 740 mmHg 94%
    03:00 +8°C° 0 mm 3 mps 740 mmHg 94%
    04:00 +7°C° 0 mm 4 mps 740 mmHg 93%
    05:00 +7°C° 0 mm 4 mps 740 mmHg 93%
    06:00 +8°C° 0.1 mm 4 mps 740 mmHg 88%
    07:00 +10°C° 0.1 mm 5 mps 740 mmHg 83%
    08:00 +12°C° 0.1 mm 5 mps 741 mmHg 78%
    09:00 +12°C° 0.5 mm 5 mps 741 mmHg 78%
    10:00 +13°C° 0.5 mm 5 mps 741 mmHg 78%
    11:00 +13°C° 0.5 mm 5 mps 741 mmHg 79%
    12:00 +14°C° 0.5 mm 5 mps 741 mmHg 77%
    13:00 +14°C° 0.5 mm 6 mps 741 mmHg 76%
    14:00 +14°C° 0.5 mm 6 mps 741 mmHg 74%
    15:00 +14°C° 0.4 mm 5 mps 741 mmHg 73%
    16:00 +14°C° 0.4 mm 5 mps 741 mmHg 72%
    17:00 +15°C° 0.4 mm 5 mps 741 mmHg 72%
    18:00 +14°C° 0.3 mm 4 mps 741 mmHg 77%
    19:00 +13°C° 0.3 mm 3 mps 741 mmHg 82%
    20:00 +12°C° 0.3 mm 3 mps 741 mmHg 87%
    21:00 +11°C° 0 mm 3 mps 742 mmHg 90%
    22:00 +9°C° 0 mm 3 mps 742 mmHg 92%
    23:00 +8°C° 0 mm 2 mps 742 mmHg 94%

    24 June, Sunday

    Time Temperature Precipitation Wind Pressure Humidity
    00:00 +8°C° 0 mm 2 mps 742 mmHg 95%
    01:00 +7°C° 0 mm 2 mps 742 mmHg 95%
    02:00 +7°C° 0 mm 2 mps 743 mmHg 95%
    03:00 +7°C° 0 mm 2 mps 743 mmHg 95%
    04:00 +7°C° 0 mm 2 mps 743 mmHg 95%
    05:00 +7°C° 0 mm 2 mps 743 mmHg 95%
    06:00 +9°C° 0 mm 3 mps 743 mmHg 90%
    07:00 +10°C° 0 mm 3 mps 743 mmHg 85%
    08:00 +12°C° 0 mm 3 mps 744 mmHg 80%
    09:00 +13°C° 0.2 mm 3 mps 744 mmHg 74%
    10:00 +16°C° 0.2 mm 3 mps 744 mmHg 69%
    11:00 +17°C° 0.2 mm 3 mps 744 mmHg 63%
    12:00 +17°C° 0.3 mm 3 mps 744 mmHg 64%
    13:00 +17°C° 0.3 mm 3 mps 744 mmHg 65%
    14:00 +17°C° 0.3 mm 3 mps 744 mmHg 66%
    15:00 +17°C° 0.3 mm 3 mps 744 mmHg 67%
    16:00 +17°C° 0.3 mm 3 mps 744 mmHg 68%
    17:00 +17°C° 0.3 mm 3 mps 744 mmHg 69%
    18:00 +17°C° 0.1 mm 3 mps 745 mmHg 74%
    19:00 +16°C° 0.1 mm 2 mps 745 mmHg 78%
    20:00 +15°C° 0.1 mm 2 mps 745 mmHg 82%
    21:00 +14°C° 0 mm 2 mps 745 mmHg 85%
    22:00 +12°C° 0 mm 2 mps 745 mmHg 87%
    23:00 +10°C° 0 mm 2 mps 746 mmHg 90%
    Show more